DECAYED
Showing default

FLOCK 1C 6, 40036 (Decayed)

Orbit data source: Space-Track

FLOCK 1C 6, 40036 was a payload satellite owned by Planet Labs (US) in LEO that was launched on Thu, 19 Jun 2014 UTC via a DNEPR launch vehicle from the Orenburg, Russia (OREN). Payload-class satellites include a variety of spacecraft equipped with specific instruments for various scientific and technological missions. These include communications satellites like Starlink; space stations such as the ISS; scientific satellites like the Hubble; Earth observation satellites from companies like Planet Labs, Umbra, and HawkEye 360; GPS; miniature CubeSats for education and research; and military/defense satellites.

Not visible in the next 10 days
Identifier
40036, 2014-033AC
Orbit
Decayed
Country
Flag of USUS
Related business
Manufacturer
Planet Labs
Mission
Decayed Commercial Imaging
Bus & Motor
CUBESAT 3U, Unknown motor
Mass
4.25 kg wet, 4.25 kg dry
Launch date (UTC)
2014-06-19 (11 years ago)
Launch vehicle
DNEPR
Launch site
Orenburg, Russia (OREN)
Object type
Payload
Rocket body
Debris
Shape & HBR
Box + 2 Pan, 1.0 m
Radar Cross Section
0.108 m², Small (<0.1 m²)

Expand to show TLE details & history
Last TLE update: 9 months ago

TLE from 9 months ago
0 FLOCK 1C 6
1 40036U 14033AC  25072.82152838  .08519016  29163-5  26632-2 0  9994
2 40036  98.0554  93.5692 0009087 188.3640 171.7500 16.26462799585151
Epoch: 2025-03-13T19:43Z
TLE epoch observation values (Epoch: 2025-03-13T19:43:00.052Z)
Latitude
-0.00002°
Longitude
-13.87128°
Altitude
211.195 km
Speed
7.776 km/s
True Right ascension
06h 14m 16s
True Declination
0° 00' 00"
Sunlit
Object was in daylight at epoch
Visualization orbit readout
Latitude
Unknown
Longitude
Unknown
Altitude
Unknown
Speed
Unknown
Apparent Right ascension
Unknown
Apparent Declination
Unknown
Sunlit
N/A
Visualization observer readout
Local Sidereal Time
00:52:47
Azimuth
Unknown
Elevation
Unknown
Doppler factor
Unknown
Orbital elements
Apogee altitude
204.895 km
Perigee altitude
192.942 km
Semi-major axis
6,577.056 km
Eccentricity
0.00091
Inclination
98.0554°
RAAN
93.5692°
Arg. of periapsis
188.364°
True anomaly
171.76493°
Mean anomaly
171.75°
Eccentric anomaly
171.75746°
Mean motion
4.06908 °/min
Orbital period
88.47 mins
BSTAR
0.0026632
Loading maneuver chart data...
Computing Atmospheric mass density...
Loading historical data...
Loading historical data...
Loading historical data...
Loading historical data...
Loading historical data...
Loading historical data...
Loading historical data...

Documentation

Showing up to 5 results
|